Home   Weather   Ras al-Khaimah   Past weeks

Flag for United Arab Emirates Past Weather in Ras al-Khaimah, Ras al-Khaimah, United Arab Emirates — Yesterday and Last 2 Weeks

Now
102 °F

Clear.


Feels Like: 107 °F
Forecast: 94 / 111 °F
Wind: 5 mph from North

Location: Ras Al Khaimah International Airport

Current Time: Jul 27, 2017 at 9:00:20 pm

Latest Report: Jul 27, 2017 at 8:00 pm


Visibility: 5 mi

Pressure: 29.45 "Hg

Humidity: 31%

Dew Point: 66 °F

Location of Ras al-KhaimahLocation

Past Weather in Ras al-Khaimah — Graph

°F

Ras al-Khaimah Temperature Yesterday

Maximum temperature yesterday: 117 °F (at 12:00 pm)
Minimum temperature yesterday: 84 °F (at 6:00 am)
Average temperature yesterday: 101 °F

High & Low Weather Summary for the Past Weeks

 TemperatureHumidityPressure
High117 °F (Jul 25, 1:00 pm)84% (Jul 19, 5:00 am)29.53 "Hg (Jul 19, 5:00 am)
Low81 °F (Jul 23, 5:00 am)4% (Jul 19, 1:00 pm)29.36 "Hg (Jul 12, 7:00 pm)
Average100 °F33%29.44 "Hg
* Reported Jul 12 7:00 pm — Jul 27 7:00 pm, Ras al-Khaimah. Weather by CustomWeather, © 2017

Note: Actual official high and low records may vary slightly from our data, if they occured in-between our weather recording intervals... More about our weather records

Advertising

Ras al-Khaimah Weather History for the Previous 24 Hours

Scroll right to see more
 ConditionsComfort  
Time TempWeatherWind HumidityBarometerVisibility
7:00 pm
Thu, Jul 27
104 °FClear.6 mph29%29.45 "Hg5 mi
6:00 pm106 °FClear.2 mph30%29.45 "Hg5 mi
5:00 pm106 °FPassing clouds.10 mph30%29.42 "Hg5 mi
4:00 pm106 °FClear.12 mph36%29.45 "Hg5 mi
3:00 pm108 °FClear.12 mph36%29.45 "Hg4 mi
2:00 pm108 °FClear.16 mph34%29.45 "Hg4 mi
1:00 pm117 °FPassing clouds.13 mph14%29.45 "HgN/A
12:00 pm115 °FPassing clouds.8 mph14%29.47 "HgN/A
11:00 am115 °FPassing clouds.8 mph15%29.47 "HgN/A
10:00 am111 °FPassing clouds.7 mph18%29.50 "HgN/A
9:00 am108 °FPassing clouds.6 mph22%29.50 "HgN/A
8:00 am100 °FClear.No wind35%29.50 "Hg4 mi
7:00 am91 °FClear.No wind46%29.50 "Hg4 mi
6:00 am90 °FClear.3 mph46%29.47 "Hg4 mi
5:00 am90 °FClear.No wind49%29.47 "Hg4 mi
4:00 am91 °FClear.5 mph46%29.45 "Hg4 mi
3:00 am91 °FClear.5 mph46%29.45 "Hg5 mi
2:00 am91 °FClear.5 mph46%29.45 "Hg5 mi
1:00 am93 °FClear.2 mph44%29.42 "Hg5 mi
12:00 am95 °FClear.6 mph41%29.42 "Hg5 mi
11:00 pm
Wed, Jul 26
97 °FClear.7 mph39%29.42 "Hg5 mi
10:00 pm99 °FClear.9 mph33%29.42 "Hg5 mi
9:00 pm99 °FClear.6 mph31%29.42 "Hg5 mi
Weather by CustomWeather, © 2017

See weather overviewHow to use our weather pages